Copper Mountain, CO

9:45 AM MDT on August 18, 2017 (GMT -0600)
Copper Mountain

Weather History for KCCU - September, 2012

Change the Weather History Date:

Sunday, September 16, 2012

  Actual Average Record
Temperature  
Mean Temperature 50 °F -  
Max Temperature 59 °F - 62 °F (2014)
Min Temperature 42 °F - 26 °F (2006)
Degree Days  
Heating Degree Days 14    
Month to date heating degree days  
Cooling Degree Days 0    
Month to date cooling degree days  
Moisture  
Dew Point 5 °F    
Average Humidity 16    
Maximum Humidity 25    
Minimum Humidity 10    
Precipitation  
Precipitation 0.00 in - 0.04 in (2013)
Sea Level Pressure  
Sea Level Pressure 30.58 in    
Wind  
Wind Speed 16 mph (West)    
Max Wind Speed 28 mph    
Max Gust Speed 39 mph    
Visibility 10 miles    
Events      
T = Trace of Precipitation, MM = Missing Value Source: NWS Daily Summary

Daily Weather History Graph

Daily Weather History Graph

Search for Another Location

Airport or City:

Trip Planner

Search our weather history database for the weather conditions in past years. The results will help you decide how hot, cold, wet, or windy it might be!

Date:

Astronomy

Sep. 16, 2012 Rise Set
Actual Time 6:47 AM MDT 7:10 PM MDT
Civil Twilight 6:20 AM MDT 7:37 PM MDT
Nautical Twilight 5:48 AM MDT 8:09 PM MDT
Astronomical Twilight 5:16 AM MDT 8:41 PM MDT
Moon 7:29 AM MDT (9/16) 7:17 PM MDT (9/16)
Length of Visible Light 13h 17m
Length of Day
12h 23m
New Moon, 1% of the Moon is Illuminated
Sep 16
New Moon
Sep 22
First Quarter
Sep 29
Full
Oct 8
Last Quarter
Oct 15
New

Hourly Weather History & Observations

Time (MDT) Temp. Windchill Dew Point Humidity Pressure Visibility Wind Dir Wind Speed Gust Speed Precip Events Conditions
12:15 AM 46.4 °F 40.1 °F 1.4 °F 16% 30.64 in 10.0 mi West 15.0 mph - N/A   Clear
12:35 AM 46.4 °F 40.1 °F -0.4 °F 14% 30.64 in 10.0 mi West 15.0 mph - N/A   Clear
12:55 AM 48.2 °F - -5.8 °F 10% 30.63 in 10.0 mi West 16.1 mph - N/A   Clear
1:15 AM 48.2 °F - -7.6 °F 10% 30.63 in 10.0 mi West 16.1 mph - N/A   Clear
1:35 AM 46.4 °F 40.4 °F -4.0 °F 12% 30.63 in 10.0 mi West 13.8 mph - N/A   Clear
1:55 AM 46.4 °F 39.8 °F -2.2 °F 13% 30.62 in 10.0 mi West 16.1 mph - N/A   Clear
2:15 AM 44.6 °F 37.4 °F -0.4 °F 15% 30.62 in 10.0 mi West 16.1 mph - N/A   Clear
2:35 AM 44.6 °F 38.4 °F -0.4 °F 15% 30.62 in 10.0 mi West 12.7 mph 18.4 mph N/A   Clear
2:55 AM 44.6 °F 37.2 °F -0.4 °F 15% 30.62 in 10.0 mi West 17.3 mph - N/A   Clear
3:15 AM 44.6 °F 36.9 °F 1.4 °F 17% 30.61 in 10.0 mi West 18.4 mph - N/A   Clear
3:35 AM 44.6 °F 37.4 °F 1.4 °F 17% 30.62 in 10.0 mi West 16.1 mph - N/A   Clear
3:55 AM 44.6 °F 37.4 °F 1.4 °F 17% 30.61 in 10.0 mi West 16.1 mph - N/A   Clear
4:15 AM 46.4 °F 39.5 °F -0.4 °F 14% 30.60 in 10.0 mi West 17.3 mph - N/A   Clear
4:35 AM 44.6 °F 36.9 °F 1.4 °F 17% 30.60 in 10.0 mi West 18.4 mph - N/A   Clear
4:55 AM 44.6 °F 37.2 °F 3.2 °F 18% 30.60 in 10.0 mi West 17.3 mph - N/A   Clear
5:15 AM 44.6 °F 36.9 °F 3.2 °F 18% 30.60 in 10.0 mi West 18.4 mph - N/A   Clear
5:35 AM 44.6 °F 37.2 °F 5.0 °F 20% 30.61 in 10.0 mi West 17.3 mph - N/A   Clear
5:55 AM 42.8 °F 34.8 °F 8.6 °F 25% 30.60 in 10.0 mi West 17.3 mph - N/A   Clear
6:15 AM 44.6 °F 38.8 °F 5.0 °F 20% 30.60 in 10.0 mi West 11.5 mph 18.4 mph N/A   Clear
6:25 AM 44.6 °F 38.8 °F 5.0 °F 20% 30.61 in 10.0 mi West 11.5 mph - N/A   Clear
7:35 AM 44.6 °F 43.1 °F 6.8 °F 21% 30.61 in 10.0 mi WSW 3.5 mph - N/A   Clear
7:55 AM 46.4 °F 45.2 °F 5.0 °F 18% 30.61 in 10.0 mi SW 3.5 mph - N/A   Clear
8:15 AM 46.4 °F 41.9 °F 5.0 °F 18% 30.61 in 10.0 mi West 9.2 mph - N/A   Clear
8:35 AM 48.2 °F - 1.4 °F 15% 30.61 in 10.0 mi West 10.4 mph - N/A   Clear
8:55 AM 50.0 °F - 3.2 °F 15% 30.62 in 10.0 mi West 10.4 mph - N/A   Clear
9:15 AM 50.0 °F - 5.0 °F 16% 30.62 in 10.0 mi West 13.8 mph - N/A   Clear
9:35 AM 51.8 °F - 8.6 °F 18% 30.62 in 10.0 mi West 10.4 mph - N/A   Clear
9:55 AM 53.6 °F - 10.4 °F 18% 30.62 in 10.0 mi West 10.4 mph - N/A   Clear
10:15 AM 53.6 °F - 10.4 °F 18% 30.62 in 10.0 mi WSW 10.4 mph - N/A   Clear
10:35 AM 53.6 °F - 8.6 °F 16% 30.61 in 10.0 mi West 20.7 mph 25.3 mph N/A   Clear
10:55 AM 53.6 °F - 8.6 °F 16% 30.62 in 10.0 mi West 19.6 mph 26.5 mph N/A   Clear
11:15 AM 53.6 °F - 6.8 °F 15% 30.61 in 10.0 mi West 20.7 mph 36.8 mph N/A   Clear
11:35 AM 53.6 °F - 8.6 °F 16% 30.61 in 10.0 mi West 17.3 mph 28.8 mph N/A   Clear
11:55 AM 53.6 °F - 5.0 °F 14% 30.60 in 10.0 mi WSW 18.4 mph 29.9 mph N/A   Clear
12:15 PM 53.6 °F - 1.4 °F 12% 30.60 in 10.0 mi West 27.6 mph 39.1 mph N/A   Clear
12:35 PM 53.6 °F - 5.0 °F 14% 30.60 in 10.0 mi West 24.2 mph 36.8 mph N/A   Clear
12:55 PM 55.4 °F - 5.0 °F 13% 30.59 in 10.0 mi West 23.0 mph 31.1 mph N/A   Clear
1:15 PM 55.4 °F - 3.2 °F 12% 30.59 in 10.0 mi West 23.0 mph 33.4 mph N/A   Clear
1:35 PM 55.4 °F - 5.0 °F 13% 30.58 in 10.0 mi West 24.2 mph 34.5 mph N/A   Clear
1:55 PM 55.4 °F - 5.0 °F 13% 30.57 in 10.0 mi West 21.9 mph 29.9 mph N/A   Clear
2:15 PM 57.2 °F - 5.0 °F 12% 30.56 in 10.0 mi West 18.4 mph 32.2 mph N/A   Clear
2:35 PM 59.0 °F - 6.8 °F 13% 30.56 in 10.0 mi West 20.7 mph 29.9 mph N/A   Clear
2:55 PM 59.0 °F - 5.0 °F 12% 30.56 in 10.0 mi WNW 19.6 mph 28.8 mph N/A   Clear
3:15 PM 59.0 °F - 5.0 °F 12% 30.55 in 10.0 mi West 20.7 mph 28.8 mph N/A   Clear
3:35 PM 59.0 °F - 3.2 °F 11% 30.54 in 10.0 mi West 25.3 mph 38.0 mph N/A   Clear
3:55 PM 59.0 °F - 5.0 °F 12% 30.54 in 10.0 mi WNW 27.6 mph 35.7 mph N/A   Clear
4:15 PM 59.0 °F - 5.0 °F 12% 30.54 in 10.0 mi West 21.9 mph 32.2 mph N/A   Clear
4:35 PM 59.0 °F - 5.0 °F 12% 30.54 in 10.0 mi West 19.6 mph 28.8 mph N/A   Scattered Clouds
4:55 PM 59.0 °F - 8.6 °F 14% 30.54 in 10.0 mi West 18.4 mph 27.6 mph N/A   Scattered Clouds
5:15 PM 55.4 °F - 5.0 °F 13% 30.53 in 10.0 mi West 19.6 mph 27.6 mph N/A   Clear
5:35 PM 55.4 °F - 5.0 °F 13% 30.54 in 10.0 mi West 16.1 mph 25.3 mph N/A   Clear
5:55 PM 57.2 °F - 5.0 °F 12% 30.53 in 10.0 mi West 23.0 mph - N/A   Clear
6:15 PM 53.6 °F - 5.0 °F 14% 30.53 in 10.0 mi West 23.0 mph 27.6 mph N/A   Clear
6:35 PM 53.6 °F - 8.6 °F 16% 30.54 in 10.0 mi West 17.3 mph 21.9 mph N/A   Scattered Clouds
6:55 PM 53.6 °F - 8.6 °F 16% 30.54 in 10.0 mi West 17.3 mph - N/A   Mostly Cloudy
7:15 PM 53.6 °F - 10.4 °F 18% 30.53 in 10.0 mi West 17.3 mph - N/A   Scattered Clouds
7:35 PM 51.8 °F - 10.4 °F 19% 30.54 in 10.0 mi West 16.1 mph - N/A   Scattered Clouds
7:55 PM 51.8 °F - 12.2 °F 21% 30.54 in 10.0 mi West 15.0 mph - N/A   Clear
8:15 PM 50.0 °F - 10.4 °F 20% 30.54 in 10.0 mi West 15.0 mph - N/A   Scattered Clouds
8:35 PM 50.0 °F - 12.2 °F 22% 30.54 in 10.0 mi West 16.1 mph - N/A   Scattered Clouds
8:55 PM 50.0 °F - 12.2 °F 22% 30.54 in 10.0 mi West 12.7 mph - N/A   Scattered Clouds
9:15 PM 50.0 °F - 10.4 °F 20% 30.54 in 10.0 mi West 15.0 mph - N/A   Mostly Cloudy
9:35 PM 50.0 °F - 10.4 °F 20% 30.54 in 10.0 mi West 13.8 mph - N/A   Mostly Cloudy
9:55 PM 50.0 °F - 10.4 °F 20% 30.54 in 10.0 mi West 13.8 mph - N/A   Mostly Cloudy
10:15 PM 48.2 °F - 10.4 °F 22% 30.54 in 10.0 mi West 12.7 mph - N/A   Overcast
10:35 PM 50.0 °F - 10.4 °F 20% 30.54 in 10.0 mi West 15.0 mph - N/A   Overcast
10:55 PM 46.4 °F 41.1 °F 10.4 °F 23% 30.53 in 10.0 mi West 11.5 mph - N/A   Scattered Clouds
11:15 PM 46.4 °F 44.3 °F 10.4 °F 23% 30.53 in 10.0 mi WSW 4.6 mph - N/A   Scattered Clouds
11:35 PM 46.4 °F 42.9 °F 12.2 °F 25% 30.52 in 10.0 mi WSW 6.9 mph - N/A   Clear
11:55 PM 46.4 °F 41.9 °F 12.2 °F 25% 30.51 in 10.0 mi WSW 9.2 mph 17.3 mph N/A   Scattered Clouds